Find Starlink 33548

NORAD ID: 62280 Int'l Des: 2024-237 Owner: SPXS Country: US Constellation: starlink operational
LEOCIRCULAR

現在のビュー

3D地球を読み込み中...

Starlink 33548について

説明を読み込み中...

次回通過

Passes for default location (London). Set your location on the main map for personalized predictions.

高度履歴

Loading altitude history...

軌道要素

1 62280U 24237P 26149.94016722 .00026303 00000-0 96162-3 0 9990
2 62280 43.0016 106.6415 0001345 261.2304 98.8395 15.27590979 83746
Epoch: May 29, 2026 • Age: 16 hours

現在のステータス

高度 486.6 km
速度 7.63 km/s
衛星直下点 41.37°N, 65.93°E
打ち上げ日 Dec 8, 2024
運用期間 1.4 years
タイプ internet

技術仕様

分類 Payload
質量 530.00 kg
乾燥質量 500.00 kg
総質量 530.00 kg
長さ 0.30 m
直径 4.10 m
スパン 29.00 m
形状 Box + pan
製造者 SPXS
バスタイプ Starlink V2MO
フェーズステータス In Orbit
所有者/国 SPXS/US

Most Searched